80002 ZGHA-ZSSS

Flight info

Callsign 80002
Flight time N/A
Altitude 29100
Route PATVO H166 ELNEX G204 JTN
Aircraft B752/M-SDE3FGHIM3RWXY/LB1

Departure

Time N/A
Airport Changsha Huanghua International Airport (ZGHA)

Arrival

Time 2026-05-01 11:49
Airport Shanghai Hongqiao International Airport (ZSSS)
Time Latitude Longitude Altitude Speed Heading
2026-05-01 11:20 29.60700 120.53014 29138 ft 508 kts 91°
2026-05-01 11:20 29.60591 120.57073 29134 ft 508 kts 91°
2026-05-01 11:21 29.60389 120.65218 29125 ft 507 kts 89°
2026-05-01 11:21 29.61435 120.73164 29124 ft 503 kts 70°
2026-05-01 11:22 29.64467 120.80396 28604 ft 509 kts 53°
2026-05-01 11:22 29.66618 120.83555 27862 ft 504 kts 44°
2026-05-01 11:22 29.69156 120.86313 27110 ft 493 kts 35°
2026-05-01 11:23 29.71941 120.88535 26369 ft 486 kts 27°
2026-05-01 11:23 29.74879 120.90472 25626 ft 489 kts 25°
2026-05-01 11:23 29.77863 120.92398 24838 ft 489 kts 25°
2026-05-01 11:23 29.80771 120.94250 24050 ft 479 kts 25°
2026-05-01 11:24 29.83629 120.96054 23829 ft 449 kts 24°
2026-05-01 11:24 29.86319 120.97749 23141 ft 425 kts 24°
2026-05-01 11:24 29.91595 121.01021 21918 ft 433 kts 24°
2026-05-01 11:25 29.94212 121.02646 21354 ft 430 kts 24°
2026-05-01 11:25 29.99411 121.05868 20332 ft 424 kts 24°
2026-05-01 11:25 30.02010 121.07475 19845 ft 421 kts 24°
2026-05-01 11:26 30.04565 121.09056 19356 ft 418 kts 24°
2026-05-01 11:26 30.09685 121.12226 18345 ft 412 kts 25°
2026-05-01 11:26 30.12222 121.13798 17834 ft 410 kts 25°
2026-05-01 11:27 30.14713 121.15343 17327 ft 407 kts 25°
2026-05-01 11:27 30.17230 121.16904 16810 ft 402 kts 25°
2026-05-01 11:27 30.19687 121.18429 16302 ft 398 kts 26°
2026-05-01 11:27 30.22124 121.19943 15800 ft 394 kts 26°
2026-05-01 11:28 30.24549 121.21370 15304 ft 389 kts 19°
2026-05-01 11:28 30.27160 121.22173 14843 ft 382 kts
2026-05-01 11:28 30.29811 121.22562 14390 ft 379 kts
2026-05-01 11:29 30.35018 121.23305 13461 ft 375 kts
2026-05-01 11:29 30.37601 121.23661 12991 ft 370 kts
2026-05-01 11:29 30.42702 121.24352 12074 ft 366 kts
2026-05-01 11:30 30.45237 121.24695 11636 ft 364 kts
2026-05-01 11:30 30.47487 121.25008 11278 ft 362 kts
2026-05-01 11:30 30.49989 121.25356 10896 ft 360 kts
2026-05-01 11:30 30.52476 121.25703 10515 ft 358 kts
2026-05-01 11:31 30.54947 121.26047 10115 ft 356 kts
2026-05-01 11:31 30.57415 121.26391 9709 ft 354 kts
2026-05-01 11:31 30.59834 121.26728 9424 ft 348 kts
2026-05-01 11:31 30.62263 121.27067 9468 ft 354 kts
2026-05-01 11:32 30.64739 121.27412 9417 ft 355 kts
2026-05-01 11:32 30.67081 121.27740 9392 ft 328 kts
2026-05-01 11:32 30.69241 121.28043 9397 ft 291 kts
2026-05-01 11:32 30.71184 121.28315 9430 ft 281 kts
2026-05-01 11:33 30.73196 121.28596 9362 ft 295 kts
2026-05-01 11:33 30.75196 121.28876 9152 ft 284 kts
2026-05-01 11:33 30.77126 121.29148 8980 ft 277 kts
2026-05-01 11:33 30.79088 121.29423 8898 ft 287 kts
2026-05-01 11:34 30.81048 121.29699 8696 ft 282 kts
2026-05-01 11:34 30.83010 121.29975 8561 ft 283 kts
2026-05-01 11:34 30.84984 121.30251 8421 ft 283 kts
2026-05-01 11:34 30.86942 121.30125 8282 ft 282 kts 347°
2026-05-01 11:35 30.88876 121.29663 8116 ft 281 kts 349°
2026-05-01 11:35 30.90790 121.29294 7841 ft 281 kts 350°
2026-05-01 11:35 30.92706 121.28954 7600 ft 276 kts 351°
2026-05-01 11:35 30.94634 121.28629 7400 ft 277 kts 351°
2026-05-01 11:36 30.96539 121.28317 7185 ft 277 kts 352°
2026-05-01 11:36 30.98450 121.28011 6979 ft 276 kts 352°
2026-05-01 11:36 31.00360 121.27708 6752 ft 273 kts 352°
2026-05-01 11:36 31.02251 121.27410 6491 ft 272 kts 352°
2026-05-01 11:37 31.04131 121.27114 6242 ft 271 kts 353°
2026-05-01 11:37 31.06004 121.26820 6019 ft 270 kts 353°
2026-05-01 11:37 31.07864 121.26528 5786 ft 270 kts 353°
2026-05-01 11:37 31.09739 121.26234 5578 ft 269 kts 353°
2026-05-01 11:38 31.11565 121.25948 5368 ft 269 kts 353°
2026-05-01 11:38 31.13428 121.25655 5140 ft 267 kts 353°
2026-05-01 11:38 31.15260 121.25368 4931 ft 267 kts 353°
2026-05-01 11:38 31.17107 121.25078 4704 ft 264 kts 353°
2026-05-01 11:39 31.18864 121.24800 4439 ft 244 kts 353°
2026-05-01 11:39 31.20499 121.24542 4199 ft 229 kts 353°
2026-05-01 11:39 31.22035 121.24300 3976 ft 218 kts 353°
2026-05-01 11:39 31.23537 121.24065 3856 ft 217 kts 354°
2026-05-01 11:40 31.25069 121.23825 3759 ft 222 kts 353°
2026-05-01 11:40 31.26603 121.23583 3602 ft 223 kts 354°
2026-05-01 11:40 31.28138 121.23341 3436 ft 222 kts 353°
2026-05-01 11:40 31.29673 121.23099 3253 ft 219 kts 354°
2026-05-01 11:41 31.31187 121.22861 3077 ft 219 kts 354°
2026-05-01 11:41 31.32714 121.22621 2959 ft 222 kts 354°
2026-05-01 11:41 31.34242 121.22380 2805 ft 219 kts 354°
2026-05-01 11:41 31.35759 121.22158 2629 ft 215 kts
2026-05-01 11:42 31.37152 121.22545 2474 ft 204 kts 37°
2026-05-01 11:42 31.38013 121.23784 2332 ft 191 kts 76°
2026-05-01 11:42 31.38149 121.25288 2222 ft 185 kts 91°
2026-05-01 11:42 31.38184 121.26793 2104 ft 186 kts 90°
2026-05-01 11:43 31.38217 121.28347 2003 ft 198 kts 91°
2026-05-01 11:43 31.38238 121.29984 1979 ft 199 kts 93°
2026-05-01 11:43 31.37870 121.31460 1982 ft 184 kts 128°
2026-05-01 11:44 31.35826 121.32430 2020 ft 152 kts 167°
2026-05-01 11:44 31.34747 121.32619 2036 ft 158 kts 169°
2026-05-01 11:44 31.33638 121.32764 1973 ft 156 kts 171°
2026-05-01 11:44 31.32607 121.32867 1955 ft 142 kts 172°
2026-05-01 11:45 31.31629 121.32951 1975 ft 141 kts 172°
2026-05-01 11:45 31.30612 121.33028 1811 ft 146 kts 173°
2026-05-01 11:45 31.29647 121.33087 1574 ft 127 kts 173°
2026-05-01 11:45 31.28828 121.33135 1415 ft 111 kts 173°
2026-05-01 11:46 31.28075 121.33179 1278 ft 109 kts 173°
2026-05-01 11:46 31.27291 121.33227 1174 ft 113 kts 173°
2026-05-01 11:46 31.26514 121.33270 1037 ft 114 kts 174°
2026-05-01 11:46 31.25719 121.33313 892 ft 113 kts 174°
2026-05-01 11:47 31.24922 121.33356 743 ft 113 kts 174°
2026-05-01 11:47 31.24134 121.33398 600 ft 113 kts 174°
2026-05-01 11:47 31.23343 121.33439 453 ft 113 kts 175°
2026-05-01 11:47 31.22555 121.33463 294 ft 113 kts 175°
2026-05-01 11:48 31.21780 121.33508 157 ft 111 kts 173°
2026-05-01 11:48 31.21001 121.33563 33 ft 112 kts 175°
2026-05-01 11:48 31.20318 121.33607 17 ft 69 kts 179°
2026-05-01 11:48 31.19939 121.33624 17 ft 53 kts 180°
2026-05-01 11:49 31.19572 121.33650 17 ft 52 kts 180°
2026-05-01 11:49 31.19264 121.33553 17 ft 30 kts 204°
2026-05-01 11:49 31.19121 121.33431 17 ft 20 kts 262°
2026-05-01 11:49 31.19110 121.33263 17 ft 21 kts 268°
2026-05-01 11:50 31.19101 121.33076 17 ft 23 kts 274°
2026-05-01 11:50 31.19227 121.33003 17 ft 23 kts 356°
2026-05-01 11:50 31.19399 121.32992 17 ft 25 kts 358°
2026-05-01 11:50 31.19585 121.32987 17 ft 27 kts 353°
2026-05-01 11:51 31.19646 121.32896 17 ft 13 kts 265°
2026-05-01 11:51 31.19669 121.32812 17 ft 10 kts 330°
2026-05-01 11:51 31.19741 121.32764 17 ft 13 kts 330°
2026-05-01 11:51 31.19779 121.32755 17 ft 7 kts
2026-05-01 11:52 31.19802 121.32755 17 ft 7 kts 356°
2026-05-01 11:52 31.19817 121.32754 17 ft 0 kts 356°
2026-05-01 11:52 31.19816 121.32754 17 ft 0 kts 356°
2026-05-01 11:52 31.19815 121.32754 17 ft 0 kts 356°